Location: Rounton
(54.4000°N, 1.3500°W)
Time: 08:29:03
(UTC+00:00)

Tiros 1 despin weight - Pass Details

Date: 30 November 2021
Orbit: 592 x 641 km, 48.2° (Epoch: 19 January)

Event Time Altitude Azimuth Distance (km) Brightness Sun altitude
Rises 19:19:50 0° 270° (W) 2,828 ? -29.9°
Reaches altitude 10° 19:22:27 10° 256° (WSW) 1,928 ? -30.3°
Enters shadow 19:24:55 21° 225° (SW) 1,350 ? -30.7°
Maximum altitude 19:25:56 23° 204° (SSW) 1,283 - -30.8°
Drops below altitude 10° 19:29:25 10° 152° (SSE) 1,938 - -31.3°
Sets 19:32:05 0° 138° (SE) 2,847 - -31.7°
